Flag for Canada Weather past 2 weeks in Owen Sound, Ontario, Canada

55 °F

Drizzle. Fog.

Feels Like: 53 °F
Forecast: 46 / 55 °F
Wind: 10 mph from West

Location: Wiarton

Current Time: Oct 9, 2015 at 6:01:09 AM

Latest Report: Oct 9, 2015 at 5:00 AM

Visibility: 1 mi

Pressure: 29.76 "Hg

Humidity: 100%

Dew point: 55 °F

Location of Owen SoundLocation

Historic Weather in Owen Sound — Graph


Owen Sound temperature yesterday

Maximum temperature yesterday: 59 °F (at 2:00 PM)
Minimum temperature yesterday: 39 °F (at 2:00 AM)
Average temperature yesterday: 50 °F

Past Weeks' High & Low Weather Summary

High75 °F (Sep 28, 4:00 PM)100% (Sep 24, 5:03 AM)30.54 "Hg (Sep 24, 5:03 AM)
Low39 °F (Oct 8, 2:00 AM)44% (Oct 2, 5:00 PM)29.76 "Hg (Oct 9, 3:49 AM)
Average56 °F78%30.23 "Hg
* Reported Sep 24 5:03 AM — Oct 9 5:00 AM, Owen Sound, Weather by CustomWeather, © 2015

Note: Actual official high and low records may vary slightly from our data, if they occured in-between our weather recording intervals... More about our weather records


Owen Sound weather history for previous 24 hours

Time TempWeatherWind HumidityBarometerVisibility
5:00 AM
Fri, Oct 9
55 °FDrizzle. Fog.10 mph100%29.76 "Hg1 mi
4:00 AM55 °FDrizzle. Fog.7 mph94%29.76 "Hg1 mi
3:49 AM55 °FDrizzle. Fog.10 mph94%29.76 "Hg1 mi
3:00 AM54 °FOvercast.13 mph100%29.77 "Hg8 mi
2:50 AM54 °FOvercast.12 mph100%29.77 "Hg8 mi
2:00 AM54 °FOvercast.13 mph94%29.77 "Hg10 mi
1:00 AM54 °FOvercast.16 mph94%29.80 "Hg10 mi
12:00 AM54 °FOvercast.16 mph94%29.82 "Hg10 mi
11:00 PM
Thu, Oct 8
54 °FLight rain. Overcast.14 mph94%29.85 "Hg8 mi
10:00 PM54 °FLight rain. Overcast.14 mph94%29.87 "Hg8 mi
9:00 PM54 °FLight rain. Overcast.12 mph94%29.90 "Hg8 mi
8:00 PM54 °FLight rain. Overcast.9 mph88%29.94 "Hg10 mi
7:00 PM54 °FLight rain. Mostly cloudy.9 mph88%29.94 "Hg12 mi
6:00 PM54 °FLight rain. Mostly cloudy.8 mph88%29.97 "Hg15 mi
5:00 PM55 °FMore clouds than sun.6 mph82%30.01 "Hg15 mi
4:00 PM59 °FMore clouds than sun.2 mph68%30.03 "Hg15 mi
3:00 PM59 °FMostly cloudy.8 mph63%30.05 "Hg15 mi
2:00 PM59 °FMore clouds than sun.7 mph63%30.08 "Hg15 mi
1:00 PM57 °FMore clouds than sun.7 mph67%30.13 "Hg15 mi
12:00 PM57 °FBroken clouds.12 mph63%30.14 "Hg15 mi
11:00 AM55 °FPartly sunny.8 mph67%30.14 "Hg15 mi
10:00 AM52 °FPartly sunny.9 mph62%30.17 "Hg15 mi
9:00 AM48 °FScattered clouds.3 mph76%30.16 "Hg15 mi
8:00 AM41 °FPassing clouds.3 mph93%30.18 "Hg15 mi
7:00 AM41 °FPassing clouds.6 mph87%30.18 "Hg15 mi
6:00 AM41 °FClear.7 mph93%30.17 "Hg15 mi
Weather by CustomWeather, © 2015

See weather overviewHow to use our weather pages